Tracking 17694 objects as of 27-May-2016
HD Live streaming from Space Station
objects crossing your sky now

COSMOS 2251 DEB

Track COSMOS 2251 DEB now!
10-day predictions


NORAD ID: 35970
Int'l Code: 1993-036AVL
Perigee: 680.4 km
Apogee: 740.0 km
Inclination: 74.0 °
Period: 98.8 minutes
Semi major axis: 7081 km
RCS: 0.0106 m2 (small)
Launch date: June 16, 1993
Source: Commonwealth of Independent States (former USSR) (CIS)
Launch site: PLESETSK MISSILE AND SPACE COMPLEX (PKMTR)

Note: This is SATELLITE DEBRIS
Your satellite tracking list
Your tracking list is empty





NASA's NSSDC Master Catalog

Two Line Element Set (TLE):
1 35970U 93036AVL 16146.17478333  .00001280  00000-0  28822-3 0  9995
2 35970  74.0403  77.4194 0042082 345.6193  14.3770 14.56948884357018
Source of the keplerian elements: AFSPC

N2YO: 606